Year,Month,Day,Hour,Minute,Value (Times are PST for temperature in C)
2013,08,15,08,49,16.70
2013,08,15,08,50,16.80
2013,08,15,08,51,16.80
2013,08,15,08,52,16.90
2013,08,15,08,53,16.90
2013,08,15,08,54,16.90
2013,08,15,08,55,16.90
2013,08,15,08,56,17.00
2013,08,15,08,57,17.10
2013,08,15,08,58,17.10
2013,08,15,08,59,17.20
2013,08,15,09,00,17.30
2013,08,15,09,01,17.30
2013,08,15,09,02,17.40
2013,08,15,09,03,17.50
2013,08,15,09,04,17.60
2013,08,15,09,05,17.70
2013,08,15,09,06,17.80
2013,08,15,09,07,17.90
2013,08,15,09,08,18.00
2013,08,15,09,09,18.10
2013,08,15,09,10,18.10
2013,08,15,09,11,18.20
2013,08,15,09,12,18.30
2013,08,15,09,13,18.40
2013,08,15,09,14,18.50
2013,08,15,09,15,18.60
2013,08,15,09,16,18.80
2013,08,15,09,17,18.90
2013,08,15,09,18,19.00
2013,08,15,09,19,19.00
2013,08,15,09,20,19.10
2013,08,15,09,21,19.10
2013,08,15,09,22,19.20
2013,08,15,09,23,19.20
2013,08,15,09,24,19.20
2013,08,15,09,25,19.30
2013,08,15,09,26,19.40
2013,08,15,09,27,19.50
2013,08,15,09,28,19.50
2013,08,15,09,29,19.60
2013,08,15,09,30,19.60
2013,08,15,09,31,19.70
2013,08,15,09,32,19.70
2013,08,15,09,33,19.70
2013,08,15,09,34,19.80
2013,08,15,09,35,19.80
2013,08,15,09,36,19.80
2013,08,15,09,37,19.80
2013,08,15,09,38,19.80
2013,08,15,09,39,19.80
2013,08,15,09,40,19.80
2013,08,15,09,41,19.80
2013,08,15,09,42,19.80
2013,08,15,09,43,19.70
2013,08,15,09,44,19.70
2013,08,15,09,45,19.70
2013,08,15,09,46,19.70
2013,08,15,09,47,19.70
2013,08,15,09,48,19.70
2013,08,15,09,49,19.70
2013,08,15,09,50,19.80
2013,08,15,09,51,19.80
2013,08,15,09,52,19.90
2013,08,15,09,53,19.90
2013,08,15,09,54,19.80
2013,08,15,09,55,19.80
2013,08,15,09,56,19.80
2013,08,15,09,57,19.80
2013,08,15,09,58,19.80
2013,08,15,09,59,19.80
2013,08,15,10,00,19.80
2013,08,15,10,01,19.80
2013,08,15,10,02,19.90
2013,08,15,10,03,20.00
2013,08,15,10,04,20.00
2013,08,15,10,05,20.10
2013,08,15,10,06,20.20
2013,08,15,10,07,20.20
2013,08,15,10,08,20.20
2013,08,15,10,09,20.20
2013,08,15,10,10,20.20
2013,08,15,10,11,20.10
2013,08,15,10,12,20.10
2013,08,15,10,13,20.10
2013,08,15,10,14,20.10
2013,08,15,10,15,20.10
2013,08,15,10,16,20.10
2013,08,15,10,17,20.00
2013,08,15,10,18,19.90
2013,08,15,10,19,19.80
2013,08,15,10,20,19.70
2013,08,15,10,21,19.70
2013,08,15,10,22,19.60
2013,08,15,10,23,19.60
2013,08,15,10,24,19.60
2013,08,15,10,25,19.60
2013,08,15,10,26,19.50
2013,08,15,10,27,19.50
2013,08,15,10,28,19.50
2013,08,15,10,29,19.60
2013,08,15,10,30,19.70
2013,08,15,10,31,19.70
2013,08,15,10,32,19.80
2013,08,15,10,33,19.80
2013,08,15,10,34,19.90
2013,08,15,10,35,19.90
2013,08,15,10,36,19.90
2013,08,15,10,37,19.90
2013,08,15,10,38,19.90
2013,08,15,10,39,19.90
2013,08,15,10,40,19.90
2013,08,15,10,41,19.90
2013,08,15,10,42,19.90
2013,08,15,10,43,19.80
2013,08,15,10,44,19.70
2013,08,15,10,45,19.70
2013,08,15,10,46,19.70
2013,08,15,10,47,19.70
2013,08,15,10,48,19.70
2013,08,15,10,49,19.70
2013,08,15,10,50,19.70
2013,08,15,10,51,19.60
2013,08,15,10,52,19.50
2013,08,15,10,53,19.50
2013,08,15,10,54,19.40
2013,08,15,10,55,19.40
2013,08,15,10,56,19.40
2013,08,15,10,57,19.30
2013,08,15,10,58,19.30
2013,08,15,10,59,19.40
2013,08,15,11,00,19.40
2013,08,15,11,01,19.40
2013,08,15,11,02,19.40
2013,08,15,11,03,19.40
2013,08,15,11,04,19.40
2013,08,15,11,05,19.40
2013,08,15,11,06,19.30
2013,08,15,11,07,19.30
2013,08,15,11,08,19.20
2013,08,15,11,09,19.20
2013,08,15,11,10,19.10
2013,08,15,11,11,19.10
2013,08,15,11,12,19.10
2013,08,15,11,13,19.10
2013,08,15,11,14,19.10
2013,08,15,11,15,19.10
2013,08,15,11,16,19.00
2013,08,15,11,17,19.00
2013,08,15,11,18,19.00
2013,08,15,11,19,19.00
2013,08,15,11,20,19.00
2013,08,15,11,21,19.00
2013,08,15,11,22,18.90
2013,08,15,11,23,18.90
2013,08,15,11,24,18.90
2013,08,15,11,25,18.80
2013,08,15,11,26,18.80
2013,08,15,11,27,18.80
2013,08,15,11,28,18.70
2013,08,15,11,29,18.70
2013,08,15,11,30,18.70
2013,08,15,11,31,18.60
2013,08,15,11,32,18.60
2013,08,15,11,33,18.60
2013,08,15,11,34,18.60
2013,08,15,11,35,18.60
2013,08,15,11,36,18.70
2013,08,15,11,37,18.70
2013,08,15,11,38,18.70
2013,08,15,11,39,18.70
2013,08,15,11,40,18.70
2013,08,15,11,41,18.70
2013,08,15,11,42,18.70
2013,08,15,11,43,18.70
2013,08,15,11,44,18.70
2013,08,15,11,45,18.70
2013,08,15,11,46,18.70
2013,08,15,11,47,18.70
2013,08,15,11,48,18.70
2013,08,15,11,49,18.70
2013,08,15,11,50,18.70
2013,08,15,11,51,18.70
2013,08,15,11,52,18.80
2013,08,15,11,53,18.80
2013,08,15,11,54,18.80
2013,08,15,11,55,18.80
2013,08,15,11,56,18.80
2013,08,15,11,57,18.80
2013,08,15,11,58,18.80
2013,08,15,11,59,18.90
2013,08,15,12,00,18.90
2013,08,15,12,01,18.90
2013,08,15,12,02,18.90
2013,08,15,12,03,18.90
2013,08,15,12,04,18.90
2013,08,15,12,05,18.90
2013,08,15,12,06,19.00
2013,08,15,12,07,19.00
2013,08,15,12,08,19.10
2013,08,15,12,09,19.10
2013,08,15,12,10,19.10
2013,08,15,12,11,19.20
2013,08,15,12,12,19.20
2013,08,15,12,13,19.20
2013,08,15,12,14,19.30
2013,08,15,12,15,19.30
2013,08,15,12,16,19.30
2013,08,15,12,17,19.40
2013,08,15,12,18,19.50
2013,08,15,12,19,19.60
2013,08,15,12,20,19.70
2013,08,15,12,21,19.80
2013,08,15,12,22,19.90
2013,08,15,12,23,19.90
2013,08,15,12,24,19.90
2013,08,15,12,25,20.00
2013,08,15,12,26,20.00
2013,08,15,12,27,20.10
2013,08,15,12,28,20.00
2013,08,15,12,29,20.00
2013,08,15,12,30,20.10
2013,08,15,12,31,20.00
2013,08,15,12,32,20.00
2013,08,15,12,33,19.90
2013,08,15,12,34,19.90
2013,08,15,12,35,19.90
2013,08,15,12,36,19.80
2013,08,15,12,37,19.90
2013,08,15,12,38,19.90
2013,08,15,12,39,20.00
2013,08,15,12,40,20.00
2013,08,15,12,41,20.10
2013,08,15,12,42,20.10
2013,08,15,12,43,20.10
2013,08,15,12,44,20.20
2013,08,15,12,45,20.10
2013,08,15,12,46,20.00
2013,08,15,12,47,20.00
2013,08,15,12,48,19.90
2013,08,15,12,49,19.80
2013,08,15,12,50,19.70
2013,08,15,12,51,19.60
2013,08,15,12,52,19.50
2013,08,15,12,53,19.50
2013,08,15,12,54,19.40
2013,08,15,12,55,19.40
2013,08,15,12,56,19.40
2013,08,15,12,57,19.40
2013,08,15,12,58,19.40
2013,08,15,12,59,19.30
2013,08,15,13,00,19.30
2013,08,15,13,01,19.20
2013,08,15,13,02,19.20
2013,08,15,13,03,19.20
2013,08,15,13,04,19.30
2013,08,15,13,05,19.30
2013,08,15,13,06,19.20
2013,08,15,13,07,19.20
2013,08,15,13,08,19.10
2013,08,15,13,09,19.10
2013,08,15,13,10,19.10
2013,08,15,13,11,19.10
2013,08,15,13,12,19.10
2013,08,15,13,13,19.10
2013,08,15,13,14,19.10
2013,08,15,13,15,19.10
2013,08,15,13,16,19.10
2013,08,15,13,17,19.10
2013,08,15,13,18,19.10
2013,08,15,13,19,19.20
2013,08,15,13,20,19.20
2013,08,15,13,21,19.20
2013,08,15,13,22,19.30
2013,08,15,13,23,19.30
2013,08,15,13,24,19.30
2013,08,15,13,25,19.30
2013,08,15,13,26,19.40
2013,08,15,13,27,19.40
2013,08,15,13,28,19.40
2013,08,15,13,29,19.40
2013,08,15,13,30,19.40
2013,08,15,13,31,19.40
2013,08,15,13,32,19.40
2013,08,15,13,33,19.40
2013,08,15,13,34,19.40
2013,08,15,13,35,19.40
2013,08,15,13,36,19.40
2013,08,15,13,37,19.40
2013,08,15,13,38,19.40
2013,08,15,13,39,19.40
2013,08,15,13,40,19.40
2013,08,15,13,41,19.50
2013,08,15,13,42,19.50
2013,08,15,13,43,19.60
2013,08,15,13,44,19.60
2013,08,15,13,45,19.70
2013,08,15,13,46,19.70
2013,08,15,13,47,19.80
2013,08,15,13,48,19.80
2013,08,15,13,49,19.80
2013,08,15,13,50,19.80
2013,08,15,13,51,19.80
2013,08,15,13,52,19.90
2013,08,15,13,53,20.00
2013,08,15,13,54,20.00
2013,08,15,13,55,20.10
2013,08,15,13,56,20.10
2013,08,15,13,57,20.10
2013,08,15,13,58,20.10
2013,08,15,13,59,20.10
2013,08,15,14,00,20.20
2013,08,15,14,01,20.20
2013,08,15,14,02,20.20
2013,08,15,14,03,20.30
2013,08,15,14,04,20.30
2013,08,15,14,05,20.30
2013,08,15,14,06,20.30
2013,08,15,14,07,20.30
2013,08,15,14,08,20.30
2013,08,15,14,09,20.20
2013,08,15,14,10,20.20
2013,08,15,14,11,20.20
2013,08,15,14,12,20.10
2013,08,15,14,13,20.10
2013,08,15,14,14,20.00
2013,08,15,14,15,19.90
2013,08,15,14,16,19.80
2013,08,15,14,17,19.80
2013,08,15,14,18,19.70
2013,08,15,14,19,19.70
2013,08,15,14,20,19.70
2013,08,15,14,21,19.70
2013,08,15,14,22,19.70
2013,08,15,14,23,19.80
2013,08,15,14,24,19.80
2013,08,15,14,25,19.80
2013,08,15,14,26,19.80
2013,08,15,14,27,19.80
2013,08,15,14,28,19.70
2013,08,15,14,29,19.70
2013,08,15,14,30,19.70
2013,08,15,14,31,19.70
2013,08,15,14,32,19.70
2013,08,15,14,33,19.60
2013,08,15,14,34,19.60
2013,08,15,14,35,19.60
2013,08,15,14,36,19.60
2013,08,15,14,37,19.50
2013,08,15,14,38,19.50
2013,08,15,14,39,19.50
2013,08,15,14,40,19.50
2013,08,15,14,41,19.40
2013,08,15,14,42,19.30
2013,08,15,14,43,19.30
2013,08,15,14,44,19.30
2013,08,15,14,45,19.30
2013,08,15,14,46,19.30
2013,08,15,14,47,19.30
2013,08,15,14,48,19.40
2013,08,15,14,49,19.40
2013,08,15,14,50,19.40
2013,08,15,14,51,19.30
2013,08,15,14,52,19.30
2013,08,15,14,53,19.30
2013,08,15,14,54,19.30
2013,08,15,14,55,19.40
2013,08,15,14,56,19.40
2013,08,15,14,57,19.50
2013,08,15,14,58,19.60
2013,08,15,14,59,19.60
2013,08,15,15,00,19.70
2013,08,15,15,01,19.70
2013,08,15,15,02,19.80
2013,08,15,15,03,19.80
2013,08,15,15,04,19.80
2013,08,15,15,05,19.80
2013,08,15,15,06,19.80
2013,08,15,15,07,19.80
2013,08,15,15,08,19.80
2013,08,15,15,09,19.80
2013,08,15,15,10,19.80
2013,08,15,15,11,19.80
2013,08,15,15,12,19.80
2013,08,15,15,13,19.80
2013,08,15,15,14,19.80
2013,08,15,15,15,19.80
2013,08,15,15,16,19.80
2013,08,15,15,17,19.80
2013,08,15,15,18,19.80
2013,08,15,15,19,19.80
2013,08,15,15,20,19.80
2013,08,15,15,21,19.80
2013,08,15,15,22,19.80
2013,08,15,15,23,19.70
2013,08,15,15,24,19.70
2013,08,15,15,25,19.70
2013,08,15,15,26,19.60
2013,08,15,15,27,19.60
2013,08,15,15,28,19.60
2013,08,15,15,29,19.70
2013,08,15,15,30,19.70
2013,08,15,15,31,19.70
2013,08,15,15,32,19.80
2013,08,15,15,33,19.80
2013,08,15,15,34,19.80
2013,08,15,15,35,19.80
2013,08,15,15,36,19.80
2013,08,15,15,37,19.80
2013,08,15,15,38,19.80
2013,08,15,15,39,19.80
2013,08,15,15,40,19.80
2013,08,15,15,41,19.80
2013,08,15,15,42,19.80
2013,08,15,15,43,19.80
2013,08,15,15,44,19.80
2013,08,15,15,45,19.70
2013,08,15,15,46,19.60
2013,08,15,15,47,19.50
2013,08,15,15,48,19.50
2013,08,15,15,49,19.40
2013,08,15,15,50,19.40
2013,08,15,15,51,19.40
2013,08,15,15,52,19.30
2013,08,15,15,53,19.40
2013,08,15,15,54,19.40
2013,08,15,15,55,19.40
2013,08,15,15,56,19.40
2013,08,15,15,57,19.50
2013,08,15,15,58,19.50
2013,08,15,15,59,19.50
2013,08,15,16,00,19.60
2013,08,15,16,01,19.60
2013,08,15,16,02,19.60
2013,08,15,16,03,19.60
2013,08,15,16,04,19.60
2013,08,15,16,05,19.70
2013,08,15,16,06,19.70
2013,08,15,16,07,19.70
2013,08,15,16,08,19.80
2013,08,15,16,09,19.80
2013,08,15,16,10,19.80
2013,08,15,16,11,19.90
2013,08,15,16,12,19.90
2013,08,15,16,13,19.90
2013,08,15,16,14,20.00
2013,08,15,16,15,20.00
2013,08,15,16,16,20.00
2013,08,15,16,17,19.90
2013,08,15,16,18,19.90
2013,08,15,16,19,19.80
2013,08,15,16,20,19.80
2013,08,15,16,21,19.80
2013,08,15,16,22,19.80
2013,08,15,16,23,19.80
2013,08,15,16,24,19.80
2013,08,15,16,25,19.80
2013,08,15,16,26,19.80
2013,08,15,16,27,19.90
2013,08,15,16,28,19.90
2013,08,15,16,29,20.00
2013,08,15,16,30,20.00
2013,08,15,16,31,20.10
2013,08,15,16,32,20.20
2013,08,15,16,33,20.20
2013,08,15,16,34,20.30
2013,08,15,16,35,20.40
2013,08,15,16,36,20.40
2013,08,15,16,37,20.40
2013,08,15,16,38,20.50
2013,08,15,16,39,20.50
2013,08,15,16,40,20.60
2013,08,15,16,41,20.60
2013,08,15,16,42,20.60
2013,08,15,16,43,20.60
2013,08,15,16,44,20.60
2013,08,15,16,45,20.60
2013,08,15,16,46,20.60
2013,08,15,16,47,20.70
2013,08,15,16,48,20.70
2013,08,15,16,49,20.70
2013,08,15,16,50,20.70
2013,08,15,16,51,20.80
2013,08,15,16,52,20.80
2013,08,15,16,53,20.80
2013,08,15,16,54,20.80
2013,08,15,16,55,20.90
2013,08,15,16,56,20.90
2013,08,15,16,57,20.90
2013,08,15,16,58,21.00
2013,08,15,16,59,21.00
2013,08,15,17,00,21.10
2013,08,15,17,01,21.10
2013,08,15,17,02,21.10
2013,08,15,17,03,21.10
2013,08,15,17,04,21.10
2013,08,15,17,05,21.10
2013,08,15,17,06,21.10
2013,08,15,17,07,21.10
2013,08,15,17,08,21.10
2013,08,15,17,09,21.20
2013,08,15,17,10,21.20
2013,08,15,17,11,21.20
2013,08,15,17,12,21.20
2013,08,15,17,13,21.20
2013,08,15,17,14,21.20
2013,08,15,17,15,21.20
2013,08,15,17,16,21.20
2013,08,15,17,17,21.20
2013,08,15,17,18,21.20
2013,08,15,17,19,21.20
2013,08,15,17,20,21.20
2013,08,15,17,21,21.20
2013,08,15,17,22,21.20
2013,08,15,17,23,21.20
2013,08,15,17,24,21.20
2013,08,15,17,25,21.20
2013,08,15,17,26,21.20
2013,08,15,17,27,21.20
2013,08,15,17,28,21.20
2013,08,15,17,29,21.20
2013,08,15,17,30,21.20
2013,08,15,17,31,21.20
2013,08,15,17,32,21.30
2013,08,15,17,33,21.30
2013,08,15,17,34,21.30
2013,08,15,17,35,21.30
2013,08,15,17,36,21.40
2013,08,15,17,37,21.40
2013,08,15,17,38,21.30
2013,08,15,17,39,21.30
2013,08,15,17,40,21.30
2013,08,15,17,41,21.20
2013,08,15,17,42,21.20
2013,08,15,17,43,21.20
2013,08,15,17,44,21.30
2013,08,15,17,45,21.30
2013,08,15,17,46,21.30
2013,08,15,17,47,21.30
2013,08,15,17,48,21.30
2013,08,15,17,49,21.40
2013,08,15,17,50,21.40
2013,08,15,17,51,21.40
2013,08,15,17,52,21.50
2013,08,15,17,53,21.50
2013,08,15,17,54,21.50
2013,08,15,17,55,21.60
2013,08,15,17,56,21.60
2013,08,15,17,57,21.70
2013,08,15,17,58,21.70
2013,08,15,17,59,21.70
2013,08,15,18,00,21.80
2013,08,15,18,01,21.80
2013,08,15,18,02,21.80
2013,08,15,18,03,21.80
2013,08,15,18,04,21.80
2013,08,15,18,05,21.80
2013,08,15,18,06,21.80
2013,08,15,18,07,21.80
2013,08,15,18,08,21.80
2013,08,15,18,09,21.80
2013,08,15,18,10,21.80
2013,08,15,18,11,21.80
2013,08,15,18,12,21.80
2013,08,15,18,13,21.80
2013,08,15,18,14,21.80
2013,08,15,18,15,21.80
2013,08,15,18,16,21.80
2013,08,15,18,17,21.80
